Year,Month,Day,Hour,Minute,Value (Times are PST for temperature in C)
2008,10,01,00,42,12.60
2008,10,01,00,43,12.60
2008,10,01,00,44,12.60
2008,10,01,00,45,12.60
2008,10,01,00,46,12.60
2008,10,01,00,47,12.60
2008,10,01,00,48,12.50
2008,10,01,00,49,12.50
2008,10,01,00,50,12.50
2008,10,01,00,51,12.50
2008,10,01,00,52,12.50
2008,10,01,00,53,12.50
2008,10,01,00,54,12.50
2008,10,01,00,55,12.40
2008,10,01,00,56,12.40
2008,10,01,00,57,12.40
2008,10,01,00,58,12.40
2008,10,01,00,59,12.40
2008,10,01,01,00,12.40
2008,10,01,01,01,12.40
2008,10,01,01,02,12.40
2008,10,01,01,03,12.30
2008,10,01,01,04,12.30
2008,10,01,01,05,12.30
2008,10,01,01,06,12.30
2008,10,01,01,07,12.30
2008,10,01,01,08,12.20
2008,10,01,01,09,12.20
2008,10,01,01,10,12.20
2008,10,01,01,11,12.20
2008,10,01,01,12,12.20
2008,10,01,01,13,12.20
2008,10,01,01,14,12.20
2008,10,01,01,15,12.20
2008,10,01,01,16,12.10
2008,10,01,01,17,12.10
2008,10,01,01,18,12.10
2008,10,01,01,19,12.10
2008,10,01,01,20,12.10
2008,10,01,01,21,12.10
2008,10,01,01,22,12.10
2008,10,01,01,23,12.10
2008,10,01,01,24,12.10
2008,10,01,01,25,12.10
2008,10,01,01,26,12.10
2008,10,01,01,27,12.10
2008,10,01,01,28,12.10
2008,10,01,01,29,12.10
2008,10,01,01,30,12.10
2008,10,01,01,31,12.10
2008,10,01,01,32,12.10
2008,10,01,01,33,12.00
2008,10,01,01,34,12.00
2008,10,01,01,35,12.00
2008,10,01,01,36,11.90
2008,10,01,01,37,11.90
2008,10,01,01,38,11.90
2008,10,01,01,39,11.90
2008,10,01,01,40,11.80
2008,10,01,01,41,11.80
2008,10,01,01,42,11.80
2008,10,01,01,43,11.80
2008,10,01,01,44,11.70
2008,10,01,01,45,11.70
2008,10,01,01,46,11.70
2008,10,01,01,47,11.70
2008,10,01,01,48,11.70
2008,10,01,01,49,11.60
2008,10,01,01,50,11.60
2008,10,01,01,51,11.60
2008,10,01,01,52,11.60
2008,10,01,01,53,11.60
2008,10,01,01,54,11.60
2008,10,01,01,55,11.50
2008,10,01,01,56,11.50
2008,10,01,01,57,11.50
2008,10,01,01,58,11.50
2008,10,01,01,59,11.50
2008,10,01,02,00,11.50
2008,10,01,02,01,11.40
2008,10,01,02,02,11.40
2008,10,01,02,03,11.40
2008,10,01,02,04,11.40
2008,10,01,02,05,11.40
2008,10,01,02,06,11.40
2008,10,01,02,07,11.40
2008,10,01,02,08,11.40
2008,10,01,02,09,11.40
2008,10,01,02,10,11.40
2008,10,01,02,11,11.40
2008,10,01,02,12,11.30
2008,10,01,02,13,11.30
2008,10,01,02,14,11.30
2008,10,01,02,15,11.30
2008,10,01,02,16,11.20
2008,10,01,02,17,11.20
2008,10,01,02,18,11.20
2008,10,01,02,19,11.20
2008,10,01,02,20,11.20
2008,10,01,02,21,11.20
2008,10,01,02,22,11.20
2008,10,01,02,23,11.20
2008,10,01,02,24,11.30
2008,10,01,02,25,11.30
2008,10,01,02,26,11.30
2008,10,01,02,27,11.30
2008,10,01,02,28,11.30
2008,10,01,02,29,11.30
2008,10,01,02,30,11.20
2008,10,01,02,31,11.30
2008,10,01,02,32,11.30
2008,10,01,02,33,11.30
2008,10,01,02,34,11.30
2008,10,01,02,35,11.30
2008,10,01,02,36,11.30
2008,10,01,02,37,11.20
2008,10,01,02,38,11.20
2008,10,01,02,39,11.20
2008,10,01,02,40,11.20
2008,10,01,02,41,11.20
2008,10,01,02,42,11.20
2008,10,01,02,43,11.10
2008,10,01,02,44,11.10
2008,10,01,02,45,11.10
2008,10,01,02,46,11.10
2008,10,01,02,47,11.10
2008,10,01,02,48,11.00
2008,10,01,02,49,11.00
2008,10,01,02,50,10.90
2008,10,01,02,51,10.90
2008,10,01,02,52,10.90
2008,10,01,02,53,10.90
2008,10,01,02,54,10.80
2008,10,01,02,55,10.80
2008,10,01,02,56,10.90
2008,10,01,02,57,10.80
2008,10,01,02,58,10.80
2008,10,01,02,59,10.80
2008,10,01,03,00,10.80
2008,10,01,03,01,10.80
2008,10,01,03,02,10.80
2008,10,01,03,03,10.80
2008,10,01,03,04,10.80
2008,10,01,03,05,10.80
2008,10,01,03,06,10.80
2008,10,01,03,07,10.80
2008,10,01,03,08,10.80
2008,10,01,03,09,10.80
2008,10,01,03,10,10.80
2008,10,01,03,11,10.70
2008,10,01,03,12,10.70
2008,10,01,03,13,10.70
2008,10,01,03,14,10.70
2008,10,01,03,15,10.70
2008,10,01,03,16,10.70
2008,10,01,03,17,10.70
2008,10,01,03,18,10.70
2008,10,01,03,19,10.70
2008,10,01,03,20,10.70
2008,10,01,03,21,10.70
2008,10,01,03,22,10.70
2008,10,01,03,23,10.70
2008,10,01,03,24,10.70
2008,10,01,03,25,10.70
2008,10,01,03,26,10.70
2008,10,01,03,27,10.70
2008,10,01,03,28,10.70
2008,10,01,03,29,10.70
2008,10,01,03,30,10.60
2008,10,01,03,31,10.60
2008,10,01,03,32,10.60
2008,10,01,03,33,10.60
2008,10,01,03,34,10.60
2008,10,01,03,35,10.60
2008,10,01,03,36,10.60
2008,10,01,03,37,10.60
2008,10,01,03,38,10.60
2008,10,01,03,39,10.50
2008,10,01,03,40,10.50
2008,10,01,03,41,10.50
2008,10,01,03,42,10.40
2008,10,01,03,43,10.40
2008,10,01,03,44,10.40
2008,10,01,03,45,10.40
2008,10,01,03,46,10.40
2008,10,01,03,47,10.40
2008,10,01,03,48,10.40
2008,10,01,03,49,10.40
2008,10,01,03,50,10.40
2008,10,01,03,51,10.40
2008,10,01,03,52,10.40
2008,10,01,03,53,10.30
2008,10,01,03,54,10.30
2008,10,01,03,55,10.30
2008,10,01,03,56,10.30
2008,10,01,03,57,10.30
2008,10,01,03,58,10.30
2008,10,01,03,59,10.30
2008,10,01,04,00,10.30
2008,10,01,04,01,10.30
2008,10,01,04,02,10.40
2008,10,01,04,03,10.30
2008,10,01,04,04,10.30
2008,10,01,04,05,10.30
2008,10,01,04,06,10.30
2008,10,01,04,07,10.30
2008,10,01,04,08,10.30
2008,10,01,04,09,10.30
2008,10,01,04,10,10.30
2008,10,01,04,11,10.30
2008,10,01,04,12,10.30
2008,10,01,04,13,10.30
2008,10,01,04,14,10.30
2008,10,01,04,15,10.20
2008,10,01,04,16,10.20
2008,10,01,04,17,10.20
2008,10,01,04,18,10.20
2008,10,01,04,19,10.20
2008,10,01,04,20,10.20
2008,10,01,04,21,10.20
2008,10,01,04,22,10.10
2008,10,01,04,23,10.10
2008,10,01,04,24,10.10
2008,10,01,04,25,10.10
2008,10,01,04,26,10.10
2008,10,01,04,27,10.10
2008,10,01,04,28,10.10
2008,10,01,04,29,10.10
2008,10,01,04,30,10.10
2008,10,01,04,31,10.10
2008,10,01,04,32,10.10
2008,10,01,04,33,10.10
2008,10,01,04,34,10.10
2008,10,01,04,35,10.10
2008,10,01,04,36,10.00
2008,10,01,04,37,10.00
2008,10,01,04,38,10.00
2008,10,01,04,39,10.00
2008,10,01,04,40,10.00
2008,10,01,04,41,9.90
2008,10,01,04,42,9.90
2008,10,01,04,43,9.90
2008,10,01,04,44,9.90
2008,10,01,04,45,9.90
2008,10,01,04,46,9.90
2008,10,01,04,47,9.90
2008,10,01,04,48,9.90
2008,10,01,04,49,9.90
2008,10,01,04,50,9.90
2008,10,01,04,51,9.70
2008,10,01,04,52,9.70
2008,10,01,04,53,9.70
2008,10,01,04,54,9.70
2008,10,01,04,55,9.70
2008,10,01,04,56,9.70
2008,10,01,04,57,9.70
2008,10,01,04,58,9.70
2008,10,01,04,59,9.70
2008,10,01,05,00,9.70
2008,10,01,05,01,9.70
2008,10,01,05,02,9.60
2008,10,01,05,03,9.60
2008,10,01,05,04,9.60
2008,10,01,05,05,9.60
2008,10,01,05,06,9.60
2008,10,01,05,07,9.60
2008,10,01,05,08,9.60
2008,10,01,05,09,9.60
2008,10,01,05,10,9.60
2008,10,01,05,11,9.60
2008,10,01,05,12,9.60
2008,10,01,05,13,9.60
2008,10,01,05,14,9.60
2008,10,01,05,15,9.60
2008,10,01,05,16,9.60
2008,10,01,05,17,9.60
2008,10,01,05,18,9.60
2008,10,01,05,19,9.60
2008,10,01,05,20,9.60
2008,10,01,05,21,9.60
2008,10,01,05,22,9.60
2008,10,01,05,23,9.60
2008,10,01,05,24,9.60
2008,10,01,05,25,9.60
2008,10,01,05,26,9.60
2008,10,01,05,27,9.60
2008,10,01,05,28,9.60
2008,10,01,05,29,9.60
2008,10,01,05,30,9.60
2008,10,01,05,31,9.60
2008,10,01,05,32,9.60
2008,10,01,05,33,9.60
2008,10,01,05,34,9.60
2008,10,01,05,35,9.60
2008,10,01,05,36,9.60
2008,10,01,05,37,9.60
2008,10,01,05,38,9.60
2008,10,01,05,39,9.60
2008,10,01,05,40,9.60
2008,10,01,05,41,9.60
2008,10,01,05,42,9.60
2008,10,01,05,43,9.60
2008,10,01,05,44,9.60
2008,10,01,05,45,9.60
2008,10,01,05,46,9.60
2008,10,01,05,47,9.60
2008,10,01,05,48,9.70
2008,10,01,05,49,9.70
2008,10,01,05,50,9.70
2008,10,01,05,51,9.70
2008,10,01,05,52,9.70
2008,10,01,05,53,9.70
2008,10,01,05,54,9.70
2008,10,01,05,55,9.60
2008,10,01,05,56,9.60
2008,10,01,05,57,9.60
2008,10,01,05,58,9.60
2008,10,01,05,59,9.60
2008,10,01,06,00,9.60
2008,10,01,06,01,9.60
2008,10,01,06,02,9.60
2008,10,01,06,03,9.60
2008,10,01,06,04,9.50
2008,10,01,06,05,9.50
2008,10,01,06,06,9.50
2008,10,01,06,07,9.40
2008,10,01,06,08,9.40
2008,10,01,06,09,9.40
2008,10,01,06,10,9.40
2008,10,01,06,11,9.40
2008,10,01,06,12,9.30
2008,10,01,06,13,9.40
2008,10,01,06,14,9.40
2008,10,01,06,15,9.40
2008,10,01,06,16,9.40
2008,10,01,06,17,9.40
2008,10,01,06,18,9.40
2008,10,01,06,19,9.40
2008,10,01,06,20,9.40
2008,10,01,06,21,9.40
2008,10,01,06,22,9.40
2008,10,01,06,23,9.50
2008,10,01,06,24,9.60
2008,10,01,06,25,9.60
2008,10,01,06,26,9.60
2008,10,01,06,27,9.60
2008,10,01,06,28,9.60
2008,10,01,06,29,9.60
2008,10,01,06,30,9.60
2008,10,01,06,31,9.60
2008,10,01,06,32,9.60
2008,10,01,06,33,9.60
2008,10,01,06,34,9.60
2008,10,01,06,35,9.50
2008,10,01,06,36,9.50
2008,10,01,06,37,9.40
2008,10,01,06,38,9.40
2008,10,01,06,39,9.40
2008,10,01,06,40,9.30
2008,10,01,06,41,9.30
2008,10,01,06,42,9.40
2008,10,01,06,43,9.40
2008,10,01,06,44,9.40
2008,10,01,06,45,9.40
2008,10,01,06,46,9.50
2008,10,01,06,47,9.50
2008,10,01,06,48,9.50
2008,10,01,06,49,9.60
2008,10,01,06,50,9.60
2008,10,01,06,51,9.60
2008,10,01,06,52,9.60
2008,10,01,06,53,9.60
2008,10,01,06,54,9.60
2008,10,01,06,55,9.50
2008,10,01,06,56,9.50
2008,10,01,06,57,9.50
2008,10,01,06,58,9.50
2008,10,01,06,59,9.50
2008,10,01,07,00,9.50
2008,10,01,07,01,9.60
2008,10,01,07,02,9.60
2008,10,01,07,03,9.60
2008,10,01,07,04,9.60
2008,10,01,07,05,9.60
2008,10,01,07,06,9.60
2008,10,01,07,07,9.60
2008,10,01,07,08,9.60
2008,10,01,07,09,9.60
2008,10,01,07,10,9.60
2008,10,01,07,11,9.60
2008,10,01,12,33,22.20
2008,10,01,12,34,22.30
2008,10,01,12,35,22.30
2008,10,01,12,36,22.30
2008,10,01,12,37,22.30
2008,10,01,12,38,22.30
2008,10,01,12,39,22.30
2008,10,01,12,40,22.40
2008,10,01,12,41,22.40
2008,10,01,12,42,22.40
2008,10,01,12,43,22.30
2008,10,01,12,44,22.30
2008,10,01,12,45,22.30
2008,10,01,12,46,22.30
2008,10,01,12,47,22.30
2008,10,01,12,48,22.30
2008,10,01,12,49,22.30
2008,10,01,12,50,22.30
2008,10,01,12,51,22.30
2008,10,01,12,52,22.30
2008,10,01,12,53,22.20
2008,10,01,12,54,22.20
2008,10,01,12,55,22.00
2008,10,01,12,56,21.90
2008,10,01,12,57,21.80
2008,10,01,12,58,21.80
2008,10,01,12,59,21.80
2008,10,01,13,00,21.70
2008,10,01,13,01,21.70
2008,10,01,13,02,21.70
2008,10,01,13,03,21.70
2008,10,01,13,04,21.70
2008,10,01,13,05,21.70
2008,10,01,13,06,21.60
2008,10,01,13,07,21.50
2008,10,01,13,08,21.50
2008,10,01,13,09,21.40
2008,10,01,13,10,21.30
2008,10,01,13,11,21.20
2008,10,01,13,12,21.10
2008,10,01,13,13,21.00
2008,10,01,13,14,20.90
2008,10,01,13,15,20.90
2008,10,01,13,16,20.90
2008,10,01,13,17,20.90
2008,10,01,13,18,20.90
2008,10,01,13,19,20.80
2008,10,01,13,20,20.80
2008,10,01,13,21,20.70
2008,10,01,13,22,20.60
2008,10,01,13,23,20.60
2008,10,01,13,24,20.50
2008,10,01,13,25,20.40
2008,10,01,13,26,20.40
2008,10,01,13,27,20.40
2008,10,01,13,28,20.30
2008,10,01,13,29,20.30
2008,10,01,13,30,20.20
2008,10,01,13,31,20.20
2008,10,01,13,32,20.20
2008,10,01,13,33,20.20
2008,10,01,13,34,20.20
2008,10,01,13,35,20.20
2008,10,01,13,36,20.20
2008,10,01,13,37,20.20
2008,10,01,13,38,20.10
2008,10,01,13,39,20.00
2008,10,01,13,40,19.90
2008,10,01,13,41,19.90
2008,10,01,13,42,19.80
2008,10,01,13,43,19.80
2008,10,01,13,44,19.80
2008,10,01,13,45,19.80
2008,10,01,13,46,19.80
2008,10,01,13,47,19.80
2008,10,01,13,48,19.70
2008,10,01,13,49,19.70
2008,10,01,13,50,19.70
2008,10,01,13,51,19.60
2008,10,01,13,52,19.70
2008,10,01,13,53,19.70
2008,10,01,13,54,19.70
2008,10,01,13,55,19.70
2008,10,01,13,56,19.70
2008,10,01,13,57,19.70
2008,10,01,13,58,19.80
2008,10,01,13,59,19.80
2008,10,01,14,00,19.80
2008,10,01,14,01,19.90
2008,10,01,14,02,19.90
2008,10,01,14,03,20.00
2008,10,01,14,04,20.10
2008,10,01,14,05,20.10
2008,10,01,14,06,20.20
2008,10,01,14,07,20.30
2008,10,01,14,08,20.40
2008,10,01,14,09,20.40
2008,10,01,14,10,20.50
2008,10,01,14,11,20.50
2008,10,01,14,12,20.60
2008,10,01,14,13,20.60
2008,10,01,14,14,20.70
2008,10,01,14,15,20.70
2008,10,01,14,16,20.70
2008,10,01,14,17,20.70
2008,10,01,14,18,20.80
2008,10,01,14,19,20.80
2008,10,01,14,20,20.80
2008,10,01,14,21,20.80
2008,10,01,14,22,20.80
2008,10,01,14,23,20.70
2008,10,01,14,24,20.70
2008,10,01,14,25,20.70
2008,10,01,14,26,20.80
2008,10,01,14,27,20.80
2008,10,01,14,28,20.80
2008,10,01,14,29,20.80
2008,10,01,14,30,20.80
2008,10,01,14,31,20.80
2008,10,01,14,32,20.80
2008,10,01,14,33,20.80
2008,10,01,14,34,20.80
2008,10,01,14,35,20.80
2008,10,01,14,36,20.80
2008,10,01,14,37,20.70
2008,10,01,14,38,20.70
2008,10,01,14,39,20.70
2008,10,01,14,40,20.70
2008,10,01,14,41,20.70
2008,10,01,14,42,20.60
2008,10,01,14,43,20.40
2008,10,01,14,44,20.30
2008,10,01,14,45,20.20
2008,10,01,14,46,20.10
2008,10,01,14,47,20.10
2008,10,01,14,48,20.00
2008,10,01,14,49,20.00
2008,10,01,14,50,19.90
2008,10,01,14,51,19.90
2008,10,01,14,52,19.80
2008,10,01,14,53,19.80
2008,10,01,14,54,19.80
2008,10,01,14,55,19.70
2008,10,01,14,56,19.70
2008,10,01,14,57,19.60
2008,10,01,14,58,19.60
2008,10,01,14,59,19.60
2008,10,01,15,00,19.60
2008,10,01,15,01,19.60
2008,10,01,15,02,19.50
2008,10,01,15,03,19.50
2008,10,01,15,04,19.40
2008,10,01,15,05,19.30
2008,10,01,15,06,19.30
2008,10,01,15,07,19.20
2008,10,01,15,08,19.20
2008,10,01,15,09,19.20
2008,10,01,15,10,19.10
2008,10,01,15,11,19.10
2008,10,01,15,12,19.10
2008,10,01,15,13,19.10
2008,10,01,15,14,19.10
2008,10,01,15,15,19.10
2008,10,01,15,16,19.10
2008,10,01,15,17,19.10
2008,10,01,15,18,19.10
2008,10,01,15,19,19.00
2008,10,01,15,20,19.00
2008,10,01,15,21,18.90
2008,10,01,15,22,18.90
2008,10,01,15,23,18.80
2008,10,01,15,24,18.70
2008,10,01,15,25,18.70
2008,10,01,15,26,18.60
2008,10,01,15,27,18.60
2008,10,01,15,28,18.60
2008,10,01,15,29,18.50
2008,10,01,15,30,18.50
2008,10,01,15,31,18.50
2008,10,01,15,32,18.50
2008,10,01,15,33,18.50
2008,10,01,15,34,18.50
2008,10,01,15,35,18.40
2008,10,01,15,36,18.40
2008,10,01,15,37,18.30
2008,10,01,15,38,18.30
2008,10,01,15,39,18.30
2008,10,01,15,40,18.30
2008,10,01,15,41,18.30
2008,10,01,15,42,18.20
2008,10,01,15,43,18.20
2008,10,01,15,44,18.10
2008,10,01,15,45,18.10
2008,10,01,15,46,18.00
2008,10,01,15,47,18.00
2008,10,01,15,48,17.90
2008,10,01,15,49,17.90
2008,10,01,15,50,17.90
2008,10,01,15,51,17.90
2008,10,01,15,52,17.90
2008,10,01,15,53,17.90
2008,10,01,15,54,17.90
2008,10,01,15,55,17.90
2008,10,01,15,56,17.90
2008,10,01,15,57,17.90
2008,10,01,15,58,17.90
2008,10,01,15,59,17.90
2008,10,01,16,00,17.90
2008,10,01,16,01,17.80
2008,10,01,16,02,17.80
2008,10,01,16,03,17.80
2008,10,01,16,04,17.70
2008,10,01,16,05,17.80
2008,10,01,16,06,17.70
2008,10,01,16,07,17.70
2008,10,01,16,08,17.80
2008,10,01,16,09,17.80
2008,10,01,16,10,17.70
2008,10,01,16,11,17.70
2008,10,01,16,12,17.70
2008,10,01,16,13,17.70
2008,10,01,16,14,17.60
2008,10,01,16,15,17.60
2008,10,01,16,16,17.50
2008,10,01,16,17,17.50
2008,10,01,16,18,17.50
2008,10,01,16,19,17.50
2008,10,01,16,20,17.50
2008,10,01,16,21,17.50
2008,10,01,16,22,17.50
2008,10,01,16,23,17.60
2008,10,01,16,24,17.60
2008,10,01,16,25,17.60
2008,10,01,16,26,17.60
2008,10,01,16,27,17.60
2008,10,01,16,28,17.60
2008,10,01,16,29,17.50
2008,10,01,16,30,17.50
2008,10,01,16,31,17.50
2008,10,01,16,32,17.50
2008,10,01,16,33,17.40
2008,10,01,16,34,17.40
2008,10,01,16,35,17.40
2008,10,01,16,36,17.40
2008,10,01,16,37,17.30
2008,10,01,16,38,17.30
2008,10,01,16,39,17.20
2008,10,01,16,40,17.20
2008,10,01,16,41,17.20
2008,10,01,16,42,17.10
2008,10,01,16,43,17.10
2008,10,01,16,44,17.10
2008,10,01,16,45,17.10
2008,10,01,16,46,17.00
2008,10,01,16,47,17.00
2008,10,01,16,48,17.00
2008,10,01,16,49,17.00
2008,10,01,16,50,16.90
2008,10,01,16,51,16.90
2008,10,01,16,52,16.90
2008,10,01,16,53,16.80
2008,10,01,16,54,16.80
2008,10,01,16,55,16.80
2008,10,01,16,56,16.80
2008,10,01,16,57,16.80
2008,10,01,16,58,16.80
2008,10,01,16,59,16.80
2008,10,01,17,00,16.80
2008,10,01,17,01,16.80
2008,10,01,17,02,16.80
2008,10,01,17,03,16.80
2008,10,01,17,04,16.80
2008,10,01,17,05,16.80
2008,10,01,17,06,16.80
2008,10,01,17,07,16.80
2008,10,01,17,08,16.80
2008,10,01,17,09,16.80
2008,10,01,17,10,16.80
2008,10,01,17,11,16.80
2008,10,01,17,12,16.70
2008,10,01,17,13,16.70
2008,10,01,17,14,16.70
2008,10,01,17,15,16.70
2008,10,01,17,16,16.70
2008,10,01,17,17,16.70
2008,10,01,17,18,16.70
2008,10,01,17,19,16.70
2008,10,01,17,20,16.70
2008,10,01,17,21,16.70
2008,10,01,17,22,16.40
2008,10,01,17,23,16.30
2008,10,01,17,24,16.20
2008,10,01,17,25,16.20
2008,10,01,17,26,16.20
2008,10,01,17,27,16.20
2008,10,01,17,28,16.10
2008,10,01,17,29,16.10
2008,10,01,17,30,16.10
2008,10,01,17,31,16.10
2008,10,01,17,32,16.10
2008,10,01,17,33,16.00
2008,10,01,17,34,16.00
2008,10,01,17,35,16.00
2008,10,01,17,36,16.00
2008,10,01,17,37,16.10
2008,10,01,17,38,16.10
2008,10,01,17,39,16.10
2008,10,01,17,40,16.10
2008,10,01,17,41,16.10
2008,10,01,17,42,16.20
2008,10,01,17,43,16.20
2008,10,01,17,44,16.20
2008,10,01,17,45,16.20
2008,10,01,17,46,16.20
2008,10,01,17,47,16.20
2008,10,01,17,48,16.20
2008,10,01,17,49,16.10
2008,10,01,17,50,16.10
2008,10,01,17,51,16.10
2008,10,01,17,52,16.10
2008,10,01,17,53,16.10
2008,10,01,17,54,16.00
2008,10,01,17,55,16.00
2008,10,01,17,56,15.90
2008,10,01,17,57,15.90
2008,10,01,17,58,15.80
2008,10,01,17,59,15.80
2008,10,01,18,00,15.80
2008,10,01,18,01,15.80
2008,10,01,18,02,15.70
2008,10,01,18,03,15.70
2008,10,01,18,04,15.70
2008,10,01,18,05,15.70
2008,10,01,18,06,15.60
2008,10,01,18,07,15.60
2008,10,01,18,08,15.60
2008,10,01,18,09,15.60
2008,10,01,18,10,15.50
2008,10,01,18,11,15.50
2008,10,01,18,12,15.50
2008,10,01,18,13,15.50
2008,10,01,18,14,15.40
2008,10,01,18,15,15.40
2008,10,01,18,16,15.30
2008,10,01,18,17,15.30
2008,10,01,18,18,15.30
2008,10,01,18,19,15.30
2008,10,01,18,20,15.20
2008,10,01,18,21,15.20
2008,10,01,18,22,15.20
2008,10,01,18,23,15.10
2008,10,01,18,24,15.10
2008,10,01,18,25,15.10
2008,10,01,18,26,15.00
2008,10,01,18,27,15.00
2008,10,01,18,28,15.00
2008,10,01,18,29,15.00
2008,10,01,18,30,15.00
2008,10,01,18,31,15.00
2008,10,01,18,32,15.00
2008,10,01,18,33,15.00
2008,10,01,18,34,15.00
2008,10,01,18,35,15.00
2008,10,01,18,36,14.90
2008,10,01,18,37,14.90
2008,10,01,18,38,14.90
2008,10,01,18,39,14.90
2008,10,01,18,40,14.90
2008,10,01,18,41,14.90
2008,10,01,18,42,14.90
2008,10,01,18,43,14.90
2008,10,01,18,44,14.90
2008,10,01,18,45,14.90
2008,10,01,18,46,14.90
2008,10,01,18,47,14.90
2008,10,01,18,48,14.80
2008,10,01,18,49,14.80
2008,10,01,18,50,14.80
2008,10,01,18,51,14.80
2008,10,01,18,52,14.80
2008,10,01,18,53,14.70
2008,10,01,18,54,14.70
2008,10,01,18,55,14.70
2008,10,01,18,56,14.60
2008,10,01,18,57,14.60
2008,10,01,18,58,14.60
2008,10,01,18,59,14.60
2008,10,01,19,00,14.50
2008,10,01,19,01,14.50
2008,10,01,19,02,14.40
2008,10,01,19,03,14.40
2008,10,01,19,04,14.40
2008,10,01,19,05,14.40
2008,10,01,19,06,14.40
2008,10,01,19,07,14.30
2008,10,01,19,08,14.30
2008,10,01,19,09,14.30
2008,10,01,19,10,14.30
2008,10,01,19,11,14.30
2008,10,01,19,12,14.20
2008,10,01,19,13,14.20
2008,10,01,19,14,14.20
2008,10,01,19,15,14.20
2008,10,01,19,16,14.10
2008,10,01,19,17,14.10
2008,10,01,19,18,14.10
2008,10,01,19,19,14.10
2008,10,01,19,20,14.10
2008,10,01,19,21,14.00
2008,10,01,19,22,14.00
2008,10,01,19,23,14.00
2008,10,01,19,24,13.90
2008,10,01,19,25,13.90
2008,10,01,19,26,13.90
2008,10,01,19,27,13.90
2008,10,01,19,28,13.90
2008,10,01,19,29,13.80
2008,10,01,19,30,13.80
2008,10,01,19,31,13.80
2008,10,01,19,32,13.80
2008,10,01,19,33,13.80
2008,10,01,19,34,13.80
2008,10,01,19,35,13.80
2008,10,01,19,36,13.80
2008,10,01,19,37,13.70
2008,10,01,19,38,13.70
2008,10,01,19,39,13.70
2008,10,01,19,40,13.70
2008,10,01,19,41,13.70
2008,10,01,19,42,13.70
2008,10,01,19,43,13.70
2008,10,01,19,44,13.70
2008,10,01,19,45,13.70
2008,10,01,19,46,13.60
2008,10,01,19,47,13.60
2008,10,01,19,48,13.60
2008,10,01,19,49,13.60
2008,10,01,19,50,13.60
2008,10,01,19,51,13.60
2008,10,01,19,52,13.60
2008,10,01,19,53,13.60
2008,10,01,19,54,13.60
2008,10,01,19,55,13.60
2008,10,01,19,56,13.60
2008,10,01,19,57,13.50
2008,10,01,19,58,13.50
2008,10,01,19,59,13.50
2008,10,01,20,00,13.40
2008,10,01,20,01,13.40
2008,10,01,20,02,13.40
2008,10,01,20,03,13.40
2008,10,01,20,04,13.40
2008,10,01,20,05,13.40
2008,10,01,20,06,13.40
2008,10,01,20,07,13.30
2008,10,01,20,08,13.30
2008,10,01,20,09,13.30
2008,10,01,20,10,13.30
2008,10,01,20,11,13.30
2008,10,01,20,12,13.30
2008,10,01,20,13,13.30
2008,10,01,20,14,13.30
2008,10,01,20,15,13.30
2008,10,01,20,16,13.30
2008,10,01,20,17,13.30
2008,10,01,20,18,13.30
2008,10,01,20,19,13.30
2008,10,01,20,20,13.30
2008,10,01,20,21,13.30
2008,10,01,20,22,13.30
2008,10,01,20,23,13.30
2008,10,01,20,24,13.30
2008,10,01,20,25,13.20
2008,10,01,20,26,13.20
2008,10,01,20,27,13.20
2008,10,01,20,28,13.20
2008,10,01,20,29,13.20
2008,10,01,20,30,13.20
2008,10,01,20,31,13.20
2008,10,01,20,32,13.20
2008,10,01,20,33,13.20
2008,10,01,20,34,13.20
2008,10,01,20,35,13.20
2008,10,01,20,36,13.20
2008,10,01,20,37,13.20
2008,10,01,20,38,13.10
2008,10,01,20,39,13.10
2008,10,01,20,40,13.10
2008,10,01,20,41,13.10
2008,10,01,20,42,13.10
2008,10,01,20,43,13.10
2008,10,01,20,44,13.10
2008,10,01,20,45,13.10
2008,10,01,20,46,13.10
2008,10,01,20,47,13.10
2008,10,01,20,48,13.10
2008,10,01,20,49,13.10
2008,10,01,20,50,13.10
2008,10,01,20,51,13.10
2008,10,01,20,52,13.10
2008,10,01,20,53,13.10
2008,10,01,20,54,13.10
2008,10,01,20,55,13.10
2008,10,01,20,56,13.10
2008,10,01,20,57,13.10
2008,10,01,20,58,13.10
2008,10,01,20,59,13.10
2008,10,01,21,00,13.10
2008,10,01,21,01,13.20
2008,10,01,21,02,13.20
2008,10,01,21,03,13.20
2008,10,01,21,04,13.30
2008,10,01,21,05,13.30
2008,10,01,21,06,13.30
2008,10,01,21,07,13.30
2008,10,01,21,08,13.40
2008,10,01,21,09,13.40
2008,10,01,21,10,13.40
2008,10,01,21,11,13.40
2008,10,01,21,12,13.40
2008,10,01,21,13,13.40
2008,10,01,21,14,13.40
2008,10,01,21,15,13.40
2008,10,01,21,16,13.40
2008,10,01,21,17,13.40
2008,10,01,21,18,13.40
2008,10,01,21,19,13.40
2008,10,01,21,20,13.40
2008,10,01,21,21,13.40
2008,10,01,21,22,13.40
2008,10,01,21,23,13.50
2008,10,01,21,24,13.50
2008,10,01,21,25,13.50
2008,10,01,21,26,13.50
2008,10,01,21,27,13.50
2008,10,01,21,28,13.50
2008,10,01,21,29,13.60
2008,10,01,21,30,13.60
2008,10,01,21,31,13.60
2008,10,01,21,32,13.60
2008,10,01,21,33,13.60
2008,10,01,21,34,13.60
2008,10,01,21,35,13.70
2008,10,01,21,36,13.70
2008,10,01,21,37,13.70
2008,10,01,21,38,13.70
2008,10,01,21,39,13.70
2008,10,01,21,40,13.70
2008,10,01,21,41,13.70
2008,10,01,21,42,13.70
2008,10,01,21,43,13.70
2008,10,01,21,44,13.70
2008,10,01,21,45,13.70
2008,10,01,21,46,13.70
2008,10,01,21,47,13.70
2008,10,01,21,48,13.70
2008,10,01,21,49,13.70
2008,10,01,21,50,13.70
2008,10,01,21,51,13.70
2008,10,01,21,52,13.60
2008,10,01,21,53,13.60
2008,10,01,21,54,13.60
2008,10,01,21,55,13.60
2008,10,01,21,56,13.60
2008,10,01,21,57,13.50
2008,10,01,21,58,13.50
2008,10,01,21,59,13.50
2008,10,01,22,00,13.40
2008,10,01,22,01,13.40
2008,10,01,22,02,13.40
2008,10,01,22,03,13.30
2008,10,01,22,04,13.30
2008,10,01,22,05,13.30
2008,10,01,22,06,13.20
2008,10,01,22,07,13.20
2008,10,01,22,08,13.20
2008,10,01,22,09,13.10
2008,10,01,22,10,13.10
2008,10,01,22,11,13.10
2008,10,01,22,12,13.00
2008,10,01,22,13,13.00
2008,10,01,22,14,12.90
2008,10,01,22,15,12.90
2008,10,01,22,16,12.90
2008,10,01,22,17,12.90
2008,10,01,22,18,12.90
2008,10,01,22,19,12.80
2008,10,01,22,20,12.80
2008,10,01,22,21,12.80
2008,10,01,22,22,12.80
2008,10,01,22,23,12.70
2008,10,01,22,24,12.70
2008,10,01,22,25,12.70
2008,10,01,22,26,12.70
2008,10,01,22,27,12.70
2008,10,01,22,28,12.60
2008,10,01,22,29,12.60
2008,10,01,22,30,12.60
2008,10,01,22,31,12.60
2008,10,01,22,32,12.50
2008,10,01,22,33,12.50
2008,10,01,22,34,12.50
2008,10,01,22,35,12.50
2008,10,01,22,36,12.40
2008,10,01,22,37,12.40
2008,10,01,22,38,12.40
2008,10,01,22,39,12.40
2008,10,01,22,40,12.40
2008,10,01,22,41,12.40
2008,10,01,22,42,12.40
2008,10,01,22,43,12.40
2008,10,01,22,44,12.30
2008,10,01,22,45,12.30
2008,10,01,22,46,12.30
2008,10,01,22,47,12.30
2008,10,01,22,48,12.30
2008,10,01,22,49,12.30
2008,10,01,22,50,12.30
2008,10,01,22,51,12.30
2008,10,01,22,52,12.30
2008,10,01,22,53,12.30
2008,10,01,22,54,12.40
2008,10,01,22,55,12.40
2008,10,01,22,56,12.40
2008,10,01,22,57,12.40
2008,10,01,22,58,12.40
2008,10,01,22,59,12.40
2008,10,01,23,00,12.40
2008,10,01,23,01,12.40
2008,10,01,23,02,12.40
2008,10,01,23,03,12.40
2008,10,01,23,04,12.40
2008,10,01,23,05,12.40
2008,10,01,23,06,12.40
2008,10,01,23,07,12.40
2008,10,01,23,08,12.40
2008,10,01,23,09,12.40
2008,10,01,23,10,12.40
2008,10,01,23,11,12.40
2008,10,01,23,12,12.40
2008,10,01,23,13,12.40
2008,10,01,23,14,12.40
2008,10,01,23,15,12.40
2008,10,01,23,16,12.40
2008,10,01,23,17,12.40
2008,10,01,23,18,12.40
2008,10,01,23,19,12.40
2008,10,01,23,20,12.40
2008,10,01,23,21,12.40
2008,10,01,23,22,12.40
2008,10,01,23,23,12.40
2008,10,01,23,24,12.40
2008,10,01,23,25,12.40
2008,10,01,23,26,12.40
2008,10,01,23,27,12.40
2008,10,01,23,28,12.40
2008,10,01,23,29,12.50